This demonstration page uses our WeatherBlox Daily Observations layout. Learn more.

Left ArrowRight Arrow

Hourly Observations for April 11, 2019

Temp ( °F °C ) Dew Point ( °F °C ) Humidity (%) Winds ( mph kmh ) Pressure ( in mb ) Visibility ( mi km ) Precip ( " mm )
12:53 am 00:53 Clear 60 15.6 58 14.4 93 93 Calm 29.84 1010 10 16 0.00 0.00
1:53 am 01:53 Clear 59 15 57 13.9 93 93 Calm 29.84 1011 10 16 0.00 0.00
2:53 am 02:53 Clear 56 13.3 56 13.3 100 100 Calm 29.84 1010 10 16 0.00 0.00
3:53 am 03:53 Clear 56 13.3 56 13.3 100 100 Calm 29.83 1010 10 16 0.00 0.00
4:53 am 04:53 Clear 57 13.9 56 13.3 96 96 Calm 29.84 1011 10 16 0.00 0.00
5:53 am 05:53 Clear 55 12.8 55 12.8 100 100 Calm 29.85 1011 10 16 0.00 0.00
6:53 am 06:53 Clear 55 12.8 55 12.8 100 100 Calm 29.89 1012 10 16 0.00 0.00
7:53 am 07:53 Sunny 57 13.9 57 13.9 100 100 Calm 29.91 1013 10 16 0.00 0.00
8:53 am 08:53 Sunny 65 18.3 62 16.7 90 90 VRB 5 7 29.93 1013 10 16 0.00 0.00
9:53 am 09:53 Sunny 70 21.1 61 16.1 73 73 S 12 19 29.93 1014 10 16 0.00 0.00
10:53 am 10:53 Sunny 74 23.3 62 16.7 67 67 SSE 15 24 29.93 1014 10 16 0.00 0.00
11:53 am 11:53 Sunny 77 25 59 15 54 54 SE 10 17 29.94 1014 10 16 0.00 0.00
12:53 pm 12:53 Mostly Sunny 80 26.7 56 13.3 44 44 SSE 17 28 29.93 1013 10 16 0.00 0.00
1:53 pm 13:53 Sunny 81 27.2 51 10.6 35 35 SSE 14 22 29.91 1013 10 16 0.00 0.00
2:53 pm 14:53 Sunny 82 27.8 47 8.3 29 29 SE 15 24 29.89 1012 10 16 0.00 0.00
3:53 pm 15:53 Sunny 82 27.8 48 8.9 31 31 SSE 17 28 29.86 1011 10 16 0.00 0.00
4:53 pm 16:53 Sunny 82 27.8 51 10.6 34 34 SSE 17 28 29.85 1011 10 16 0.00 0.00
5:53 pm 17:53 Sunny 82 27.8 53 11.7 37 37 SE 15 24 29.86 1011 10 16 0.00 0.00
6:53 pm 18:53 Sunny 79 26.1 54 12.2 42 42 SSE 17 28 29.88 1012 10 16 0.00 0.00
7:53 pm 19:53 Mostly Sunny 78 25.6 56 13.3 47 47 SSE 8 13 29.89 1012 10 16 0.00 0.00
8:53 pm 20:53 Clear 76 24.4 58 14.4 54 54 ESE 5 7 29.89 1012 10 16 0.00 0.00
9:53 pm 21:53 Mostly Cloudy 75 23.9 59 15 58 58 E 5 7 29.90 1012 10 16 0.00 0.00
10:53 pm 22:53 Mostly Cloudy 74 23.3 60 15.6 62 62 SSE 13 20 29.91 1013 9 14 0.00 0.00
11:53 pm 23:53 Partly Cloudy 70 21.1 65 18.3 84 84 SE 9 15 29.91 1013 10 16 0.09 2.29

Powered by AerisWeather